This demonstration page uses our WeatherBlox Daily Observations layout. Learn more.

Left ArrowRight Arrow

Hourly Observations for April 9, 2019

Temp ( °F °C ) Dew Point ( °F °C ) Humidity (%) Winds ( mph kmh ) Pressure ( in mb ) Visibility ( mi km ) Precip ( " mm )
12:52 am 00:52 Partly Cloudy 57 13.9 47 8.3 69 69 NNW 5 7 29.95 1014 10 16 0.00 0.00
1:52 am 01:52 Partly Cloudy 54 12.2 42 5.6 64 64 N 6 9 29.95 1014 10 16 0.00 0.00
2:52 am 02:52 Clear 52 11.1 41 5 66 66 NNW 7 11 29.95 1014 10 16 0.00 0.00
3:52 am 03:52 Clear 54 12.2 40 4.4 59 59 Calm 29.95 1014 10 16 0.00 0.00
4:52 am 04:52 Partly Cloudy 49 9.4 44 6.7 83 83 NNW 5 7 29.95 1014 10 16 0.00 0.00
5:52 am 05:52 Partly Cloudy 48 8.9 41 5 77 77 NNW 5 7 29.95 1014 10 16 0.00 0.00
6:52 am 06:52 Partly Cloudy 47 8.3 41 5 80 80 NE 3 6 29.94 1014 10 16 0.00 0.00
7:52 am 07:52 Partly Cloudy 50 10 44 6.7 80 80 N 3 6 29.95 1014 10 16 0.00 0.00
8:52 am 08:52 Partly Cloudy 53 11.7 41 5 64 64 N 7 11 29.99 1016 10 16 0.00 0.00
9:52 am 09:52 Mostly Cloudy 57 13.9 44 6.7 62 62 Calm 29.96 1015 10 16 0.00 0.00
10:52 am 10:52 Mostly Cloudy 60 15.6 43 6.1 53 53 Calm 29.98 1015 10 16 0.00 0.00
11:52 am 11:52 Mostly Cloudy 64 17.8 43 6.1 46 46 undefined N/A 29.95 1014 10 16 0.00 0.00
12:52 pm 12:52 Mostly Cloudy 66 18.9 43 6.1 43 43 S 9 15 29.92 1013 10 16 0.00 0.00
1:52 pm 13:52 Mostly Cloudy 68 20 43 6.1 40 40 S 12 19 29.88 1012 10 16 0.00 0.00
2:52 pm 14:52 Mostly Sunny 72 22.2 36 2.2 27 27 E 14 22 29.84 1011 10 16 0.00 0.00
3:52 pm 15:52 Mostly Cloudy 72 22.2 34 1.1 25 25 ESE 15 24 29.81 1010 10 16 0.00 0.00
4:52 pm 16:52 Mostly Cloudy 73 22.8 34 1.1 24 24 ESE 14 22 29.79 1009 10 16 0.00 0.00
5:52 pm 17:52 Mostly Cloudy 72 22.2 35 1.7 26 26 SE 15 24 29.78 1008 10 16 0.00 0.00
6:52 pm 18:52 Mostly Cloudy 71 21.7 35 1.7 27 27 E 14 22 29.78 1009 10 16 0.00 0.00
7:52 pm 19:52 Cloudy 67 19.4 36 2.2 32 32 E 17 28 29.78 1009 10 16 0.00 0.00
8:52 pm 20:52 Cloudy 62 16.7 35 1.7 37 37 E 21 33 29.80 1009 10 16 0.00 0.00
9:52 pm 21:52 Cloudy 61 16.1 34 1.1 36 36 E 23 37 29.80 1009 10 16 0.00 0.00
10:52 pm 22:52 Cloudy 58 14.4 35 1.7 42 42 E 24 39 29.82 1010 10 16 0.00 0.00
11:52 pm 23:52 Cloudy 56 13.3 34 1.1 44 44 E 22 35 29.80 1009 10 16 0.00 0.00

Powered by AerisWeather